Orbital Elements at Epoch 2459200.5 (2020-Dec-17.0) TDB
Reference: JPL 19 (heliocentric ecliptic J2000)
Element | Value | Uncertainty (1-sigma) | Units |
e | .1205614210513995 | 3.3936e-08 | |
a | 2.389026805663636 | 9.9409e-09 | au |
q | 2.101002339042942 | 8.5734e-08 | au |
i | 2.304591144633072 | 3.3122e-06 | deg |
node | 67.10230322469957 | 8.7027e-05 | deg |
peri | 354.5669205267867 | 8.8277e-05 | deg |
M | 329.5558661816738 | 1.5482e-05 | deg |
tp | 2459314.559399922300 (2021-Apr-10.05939992) | 5.8246e-05 | TDB |
period | 1348.745351635222 3.69 | 8.4184e-06 2.305e-08 | d yr |
n | .2669147289838924 | 1.666e-09 | deg/d |
Q | 2.677051272284329 | 1.1139e-08 | au |
|
| | Orbit Determination Parameters
Additional Information
|